Location: Ceske Budejovice
(48.9830°N, 14.4670°E)
Time: 20:09:12
(UTC+02:00)

DX 1 - Pass Details

Date: 27 August 2019
Orbit: 619 x 631 km, 98.4° (Epoch: 17 October)

Event Time Altitude Azimuth Distance (km) Brightness Sun altitude
Exits shadow 05:15:31 - 193° (SSW) 2,913 ? -9.2°
Rises 05:15:35 0° 193° (SSW) 2,884 ? -9.2°
Reaches altitude 10° 05:18:01 10° 205° (SSW) 1,985 ? -8.9°
Maximum altitude 05:21:44 28° 265° (W) 1,180 ? -8.3°
Drops below altitude 10° 05:25:30 10° 324° (NW) 2,004 ? -7.8°
Sets 05:27:58 0° 336° (NNW) 2,918 ? -7.4°
